| time (UTC) | temp F | wind direction | speed MPH | gust MPH | rain 1hr in | rain 24hr in | rain mn in | humidity % | barometer mb |
| 20260506061604 | 49 | 72 | 7.0 | 13.0 | 0.00 | 0.00 | 0.00 | 74 | 1012.1 |
| 20260506060104 | 49 | 49 | 5.0 | 10.0 | 0.00 | 0.00 | 0.00 | 75 | 1012.0 |
| 20260506045104 | 47 | 78 | 5.0 | 9.0 | 0.00 | 0.00 | 0.00 | 79 | 1011.8 |
| 20260506043105 | 48 | 64 | 5.0 | 12.0 | 0.00 | 0.00 | 0.00 | 80 | 1011.7 |
| 20260506042605 | 48 | 57 | 4.0 | 9.0 | 0.00 | 0.00 | 0.00 | 80 | 1011.7 |
| 20260506041605 | 48 | 82 | 6.0 | 13.0 | 0.00 | 0.00 | 0.00 | 79 | 1011.8 |
| 20260506040605 | 48 | 55 | 7.0 | 12.0 | 0.00 | 0.00 | 0.00 | 79 | 1011.8 |
| 20260506035104 | 48 | 60 | 4.0 | 12.0 | 0.00 | 0.00 | 0.00 | 79 | 1011.6 |
| 20260506034104 | 49 | 28 | 5.0 | 10.0 | 0.00 | 0.00 | 0.00 | 79 | 1011.6 |
| 20260506033606 | 49 | 55 | 3.0 | 7.0 | 0.00 | 0.00 | 0.00 | 79 | 1011.6 |
| 20260506032605 | 49 | 63 | 3.0 | 9.0 | 0.00 | 0.00 | 0.00 | 79 | 1011.7 |
| 20260506032105 | 49 | 85 | 5.0 | 10.0 | 0.00 | 0.00 | 0.00 | 79 | 1011.7 |
| 20260506030605 | 49 | 88 | 3.0 | 7.0 | 0.00 | 0.00 | 0.00 | 78 | 1011.7 |
| 20260506030105 | 49 | 59 | 2.0 | 7.0 | 0.00 | 0.00 | 0.00 | 78 | 1011.7 |
| 20260506023104 | 50 | 84 | 4.0 | 12.0 | 0.00 | 0.01 | 0.00 | 78 | 1011.8 |
| 20260506022604 | 50 | 102 | 5.0 | 10.0 | 0.00 | 0.01 | 0.00 | 78 | 1011.8 |
| 20260506021604 | 50 | 114 | 4.0 | 7.0 | 0.00 | 0.01 | 0.00 | 78 | 1011.8 |
| 20260506020104 | 50 | 88 | 5.0 | 10.0 | 0.00 | 0.01 | 0.00 | 79 | 1011.8 |
| 20260506015606 | 50 | 72 | 5.0 | 10.0 | 0.00 | 0.01 | 0.00 | 79 | 1011.9 |
| 20260506015104 | 51 | 65 | 5.0 | 10.0 | 0.00 | 0.01 | 0.00 | 79 | 1011.9 |
| 20260506013605 | 51 | 124 | 4.0 | 10.0 | 0.00 | 0.01 | 0.00 | 79 | 1011.9 |
| 20260506011605 | 51 | 116 | 3.0 | 7.0 | 0.00 | 0.01 | 0.00 | 79 | 1012.0 |
| 20260506010604 | 51 | 68 | 5.0 | 12.0 | 0.00 | 0.01 | 0.00 | 78 | 1012.1 |
| 20260506005104 | 51 | 67 | 2.0 | 6.0 | 0.00 | 0.01 | 0.00 | 77 | 1012.0 |
| 20260506004604 | 51 | 110 | 6.0 | 12.0 | 0.00 | 0.01 | 0.00 | 77 | 1012.0 |
| 20260506003104 | 51 | 117 | 5.0 | 8.0 | 0.00 | 0.01 | 0.00 | 76 | 1012.1 |
| 20260506002604 | 52 | 114 | 3.0 | 8.0 | 0.00 | 0.01 | 0.00 | 75 | 1012.2 |
| 20260506002105 | 52 | 122 | 5.0 | 8.0 | 0.00 | 0.01 | 0.00 | 75 | 1012.1 |
| 20260506001605 | 52 | 119 | 6.0 | 14.0 | 0.00 | 0.01 | 0.00 | 75 | 1012.1 |
| 20260506000604 | 52 | 70 | 3.0 | 10.0 | 0.00 | 0.01 | 0.00 | 75 | 1012.1 |
| 20260506000104 | 52 | 104 | 6.0 | 12.0 | 0.00 | 0.01 | 0.00 | 75 | 1012.1 |
| 20260505234606 | 52 | 112 | 5.0 | 8.0 | 0.00 | 0.01 | 0.00 | 74 | 1012.1 |
| 20260505232605 | 53 | 114 | 5.0 | 12.0 | 0.00 | 0.01 | 0.00 | 74 | 1012.0 |
| 20260505231604 | 53 | 104 | 3.0 | 12.0 | 0.00 | 0.01 | 0.00 | 74 | 1012.0 |
| 20260505230104 | 53 | 121 | 6.0 | 12.0 | 0.00 | 0.01 | 0.00 | 73 | 1012.0 |
| 20260505225105 | 53 | 118 | 5.0 | 8.0 | 0.00 | 0.01 | 0.01 | 73 | 1011.9 |
| 20260505223604 | 54 | 87 | 5.0 | 13.0 | 0.00 | 0.01 | 0.01 | 76 | 1011.8 |
| 20260505215104 | 55 | 124 | 9.0 | 15.0 | 0.00 | 0.01 | 0.01 | 74 | 1011.8 |
| 20260505214604 | 55 | 146 | 6.0 | 18.0 | 0.00 | 0.01 | 0.01 | 73 | 1011.8 |
| 20260505214104 | 55 | 133 | 7.0 | 12.0 | 0.00 | 0.01 | 0.01 | 73 | 1011.8 |
| 20260505213604 | 55 | 124 | 8.0 | 14.0 | 0.00 | 0.01 | 0.01 | 73 | 1011.8 |
| 20260505213104 | 55 | 115 | 6.0 | 13.0 | 0.00 | 0.01 | 0.01 | 73 | 1011.7 |
| 20260505210105 | 56 | 145 | 4.0 | 12.0 | 0.00 | 0.01 | 0.01 | 71 | 1011.4 |
| 20260505204604 | 56 | 104 | 2.0 | 6.0 | 0.00 | 0.01 | 0.01 | 70 | 1011.2 |
| 20260505204105 | 56 | 105 | 4.0 | 8.0 | 0.00 | 0.01 | 0.01 | 69 | 1011.2 |
| 20260505203104 | 57 | 68 | 3.0 | 7.0 | 0.00 | 0.01 | 0.01 | 69 | 1011.2 |
| 20260505201605 | 57 | 105 | 3.0 | 12.0 | 0.00 | 0.01 | 0.01 | 69 | 1011.1 |
| 20260505201105 | 57 | 109 | 6.0 | 13.0 | 0.00 | 0.01 | 0.01 | 68 | 1011.2 |
| 20260505195104 | 57 | 98 | 6.0 | 13.0 | 0.00 | 0.01 | 0.01 | 68 | 1010.8 |
| 20260505194604 | 58 | 106 | 4.0 | 10.0 | 0.00 | 0.01 | 0.01 | 68 | 1010.8 |
| 20260505191105 | 59 | 61 | 5.0 | 10.0 | 0.00 | 0.01 | 0.01 | 67 | 1010.4 |
| 20260505190604 | 59 | 112 | 4.0 | 10.0 | 0.00 | 0.01 | 0.01 | 66 | 1010.4 |
| 20260505190104 | 59 | 114 | 5.0 | 8.0 | 0.00 | 0.01 | 0.01 | 65 | 1010.4 |
| 20260505184604 | 59 | 168 | 1.0 | 3.0 | 0.00 | 0.01 | 0.01 | 60 | 1010.3 |
| 20260505184104 | 59 | 168 | 2.0 | 3.0 | 0.00 | 0.01 | 0.01 | 60 | 1010.3 |
| 20260505183604 | 59 | 168 | 3.0 | 6.0 | 0.00 | 0.01 | 0.01 | 60 | 1010.3 |
| 20260505183104 | 59 | 173 | 5.0 | 6.0 | 0.00 | 0.01 | 0.01 | 59 | 1010.2 |
| 20260505182604 | 59 | 183 | 5.0 | 7.0 | 0.00 | 0.01 | 0.01 | 60 | 1010.2 |
| 20260505180604 | 60 | 92 | 3.0 | 8.0 | 0.00 | 0.01 | 0.01 | 60 | 1010.2 |
| 20260505180105 | 60 | 111 | 3.0 | 8.0 | 0.00 | 0.01 | 0.01 | 60 | 1010.2 |
| 20260505175104 | 60 | 139 | 1.0 | 6.0 | 0.00 | 0.01 | 0.01 | 58 | 1010.2 |
| 20260505171104 | 61 | 47 | 3.0 | 7.0 | 0.00 | 0.01 | 0.01 | 58 | 1010.2 |
| 20260505170604 | 61 | 68 | 5.0 | 12.0 | 0.00 | 0.01 | 0.01 | 58 | 1010.2 |
| 20260505165604 | 61 | 51 | 3.0 | 7.0 | 0.00 | 0.01 | 0.01 | 56 | 1010.2 |
| 20260505164604 | 61 | 118 | 1.0 | 5.0 | 0.00 | 0.01 | 0.01 | 56 | 1010.2 |
| 20260505164104 | 61 | 112 | 2.0 | 3.0 | 0.00 | 0.01 | 0.01 | 56 | 1010.2 |
| 20260505163604 | 61 | 124 | 2.0 | 3.0 | 0.00 | 0.01 | 0.01 | 56 | 1010.2 |
| 20260505162104 | 61 | 55 | 2.0 | 3.0 | 0.00 | 0.01 | 0.01 | 56 | 1010.2 |
| 20260505160604 | 61 | 148 | 0.0 | 3.0 | 0.00 | 0.01 | 0.01 | 56 | 1010.2 |
| 20260505151604 | 63 | 42 | 3.0 | 7.0 | 0.00 | 0.01 | 0.01 | 56 | 1010.3 |
| 20260505150604 | 63 | 31 | 5.0 | 10.0 | 0.00 | 0.01 | 0.01 | 54 | 1010.4 |
| 20260505150106 | 63 | 75 | 4.0 | 12.0 | 0.00 | 0.01 | 0.01 | 55 | 1010.4 |
| 20260505140604 | 61 | 42 | 4.0 | 8.0 | 0.00 | 0.01 | 0.01 | 61 | 1010.8 |
| 20260505123104 | 62 | 168 | 5.0 | 10.0 | 0.00 | 0.01 | 0.01 | 57 | 1011.0 |
| 20260505122603 | 62 | 114 | 3.0 | 6.0 | 0.00 | 0.01 | 0.01 | 58 | 1011.0 |
| 20260505121604 | 62 | 104 | 3.0 | 8.0 | 0.00 | 0.01 | 0.01 | 58 | 1011.0 |
| 20260505120604 | 62 | 123 | 5.0 | 12.0 | 0.00 | 0.01 | 0.01 | 57 | 1011.1 |
| 20260505113605 | 63 | 15 | 3.0 | 7.0 | 0.00 | 0.01 | 0.01 | 58 | 1011.1 |
| 20260505112604 | 61 | 122 | 5.0 | 10.0 | 0.00 | 0.01 | 0.01 | 60 | 1011.2 |
| 20260505112105 | 61 | 123 | 2.0 | 8.0 | 0.00 | 0.01 | 0.01 | 60 | 1011.2 |
| 20260505111104 | 62 | 134 | 4.0 | 10.0 | 0.00 | 0.01 | 0.01 | 61 | 1011.4 |
| 20260505110104 | 62 | 127 | 3.0 | 8.0 | 0.00 | 0.01 | 0.01 | 65 | 1011.5 |
| 20260505101604 | 57 | 36 | 3.0 | 7.0 | 0.00 | 0.01 | 0.01 | 74 | 1011.8 |
| 20260505100104 | 56 | 34 | 5.0 | 9.0 | 0.00 | 0.01 | 0.01 | 76 | 1011.9 |
| 20260505095104 | 56 | 63 | 4.0 | 7.0 | 0.00 | 0.01 | 0.01 | 77 | 1011.9 |
| 20260505094104 | 56 | 36 | 5.0 | 6.0 | 0.00 | 0.01 | 0.01 | 77 | 1012.0 |
| 20260505093104 | 56 | 55 | 3.0 | 6.0 | 0.00 | 0.01 | 0.01 | 78 | 1012.0 |
| 20260505092604 | 56 | 55 | 3.0 | 7.0 | 0.00 | 0.01 | 0.01 | 79 | 1012.0 |
| 20260505091604 | 55 | 103 | 3.0 | 9.0 | 0.00 | 0.01 | 0.01 | 80 | 1012.1 |
| 20260505090104 | 54 | 52 | 3.0 | 6.0 | 0.00 | 0.01 | 0.01 | 81 | 1012.2 |
| 20260505085104 | 54 | 49 | 5.0 | 8.0 | 0.00 | 0.01 | 0.01 | 81 | 1012.3 |
| 20260505084104 | 54 | 61 | 5.0 | 8.0 | 0.00 | 0.01 | 0.01 | 81 | 1012.4 |
| 20260505083604 | 54 | 61 | 5.0 | 9.0 | 0.00 | 0.01 | 0.01 | 81 | 1012.3 |
| 20260505082604 | 54 | 70 | 3.0 | 7.0 | 0.00 | 0.01 | 0.01 | 82 | 1012.3 |
| 20260505082104 | 54 | 131 | 3.0 | 6.0 | 0.00 | 0.01 | 0.01 | 82 | 1012.3 |
| 20260505081104 | 54 | 60 | 3.0 | 7.0 | 0.00 | 0.01 | 0.01 | 83 | 1012.2 |
| 20260505080604 | 54 | 60 | 2.0 | 6.0 | 0.00 | 0.01 | 0.01 | 83 | 1012.2 |
| 20260505075103 | 53 | 63 | 5.0 | 8.0 | 0.00 | 0.01 | 0.01 | 83 | 1012.2 |
| 20260505074104 | 53 | 47 | 4.0 | 9.0 | 0.00 | 0.01 | 0.01 | 84 | 1012.2 |
| 20260505073606 | 53 | 34 | 5.0 | 7.0 | 0.00 | 0.01 | 0.01 | 84 | 1012.2 |
| 20260505073103 | 53 | 65 | 3.0 | 6.0 | 0.00 | 0.01 | 0.01 | 84 | 1012.1 |
| 20260505071604 | 53 | 55 | 3.0 | 6.0 | 0.00 | 0.01 | 0.01 | 85 | 1012.3 |
| 20260505070603 | 53 | 55 | 1.0 | 3.0 | 0.00 | 0.01 | 0.01 | 85 | 1012.3 |
| 20260505065603 | 53 | 55 | 2.0 | 3.0 | 0.00 | 0.01 | 0.01 | 85 | 1012.3 |
| 20260505065103 | 53 | 55 | 2.0 | 5.0 | 0.00 | 0.01 | 0.01 | 86 | 1012.4 |
| 20260505064104 | 52 | 55 | 3.0 | 6.0 | 0.00 | 0.01 | 0.01 | 86 | 1012.4 |
| 20260505062104 | 52 | 101 | 4.0 | 7.0 | 0.00 | 0.01 | 0.01 | 86 | 1012.4 |